This is the latest recevied weather packets stored in our database for station/object W4MSI. If no packets are shown the sender has not sent any weather packets the latest 1 day(s).
| Time | Temp. | Humidity | Pressure | Rain* | Wind** | Luminosity | Snow |
|---|---|---|---|---|---|---|---|
| 1836274306 | 19.44° C | 93% | 1018 hPa | 1.78 mm | 0 m/s | 0 W/m² | - |
| 1778041744 | 17.22° C | 93% | 1005.6 hPa | 0 mm | 1.34 m/s, 219° | 0 W/m² | - |
| 1778041443 | 17.22° C | 93% | 1005.7 hPa | 0 mm | 1.79 m/s, 223° | 0 W/m² | - |
| 1778041141 | 17.22° C | 93% | 1005.6 hPa | 0 mm | 1.79 m/s, 212° | 0 W/m² | - |
| 1778040838 | 17.22° C | 94% | 1005.8 hPa | 0 mm | 1.79 m/s, 239° | 0 W/m² | - |
| 1778040535 | 17.22° C | 94% | 1005.7 hPa | 0 mm | 0.89 m/s, 185° | 0 W/m² | - |
| 1778040232 | 17.22° C | 94% | 1005.8 hPa | 1.78 mm | 2.24 m/s, 199° | 0 W/m² | - |
| 1778039928 | 16.67° C | 94% | 1005.9 hPa | 3.05 mm | 1.34 m/s, 218° | 0 W/m² | - |
| 1778039626 | 17.22° C | 93% | 1005.6 hPa | 4.83 mm | 1.79 m/s, 201° | 0 W/m² | - |
| 1778039323 | 16.67° C | 93% | 1005.7 hPa | 1.78 mm | 2.24 m/s, 219° | 0 W/m² | - |
| 1778039020 | 16.67° C | 94% | 1005.9 hPa | 0 mm | 1.79 m/s, 229° | 0 W/m² | - |
| 1778038717 | 16.67° C | 94% | 1006 hPa | 0 mm | 1.34 m/s, 235° | 0 W/m² | - |
| 1778038414 | 16.67° C | 95% | 1006 hPa | 0 mm | 0.45 m/s, 277° | 0 W/m² | - |
| 1778038111 | 16.67° C | 95% | 1006.2 hPa | 1.27 mm | 0 m/s | 0 W/m² | - |
| 1778037807 | 16.11° C | 95% | 1006.1 hPa | 4.32 mm | 1.34 m/s, 199° | 0 W/m² | - |
| 1778037505 | 16.11° C | 95% | 1006.2 hPa | 4.32 mm | 0.45 m/s, 50° | 0 W/m² | - |
| 1778037202 | 16.11° C | 95% | 1006.3 hPa | 0 mm | 0.45 m/s, 168° | 0 W/m² | - |
| 1778036899 | 16.11° C | 95% | 1006.3 hPa | 0 mm | 0.45 m/s, 227° | 0 W/m² | - |
| 1778036597 | 16.11° C | 95% | 1006.3 hPa | 0 mm | 0.89 m/s, 35° | 0 W/m² | - |
| 1778036294 | 16.11° C | 95% | 1006.3 hPa | 0 mm | 0 m/s | 0 W/m² | - |
| 1778035990 | 16.11° C | 95% | 1006.5 hPa | 0 mm | 0 m/s | 0 W/m² | - |
| 1778035688 | 16.11° C | 94% | 1006.3 hPa | 0 mm | 0.45 m/s, 216° | 0 W/m² | - |
| 1778035384 | 16.11° C | 94% | 1006.2 hPa | 0 mm | 0 m/s | 0 W/m² | - |
| 1778035080 | 16.11° C | 94% | 1006.5 hPa | 0 mm | 0 m/s | 0 W/m² | - |
| 1778034777 | 16.11° C | 94% | 1006.3 hPa | 0 mm | 0.45 m/s, 195° | 0 W/m² | - |
* Rain latest hour (hover to see other rain measurements)
** Current wind speed in m/s (hover to see current wind gust speed)